星链-30136 (STARLINK-30136 )

导读

STARLINK-30136是美国星链(Starlink)项目的低轨通信卫星,于2023年6月4日发射,归入SpaceX打造的全球卫星互联网星座组网。星链项目旨在为全球提供覆盖偏远地区的高速互联网服务,该卫星加入星座后,进一步扩充了低轨卫星网络容量,提升星座覆盖密度与通信服务能力。

基本信息
目录编号:
56844
目录名称:
STARLINK-30136
国际标识:
2023-079X
轨道中心:
EARTH
卫星名称:
星链-30136
卫星全名:
星链-30136 (STARLINK-30136 )
卫星状态:
在轨 (已飞行1110 天)
发射日期:
2023-06-04 UTC
国别 :
美国 (US)
星等 :
--
轨道信息
数据来源 国际轨道数据
星历时间: 2026-06-17T07:38:15+0800
1天前
查看轨道信息
半长轴: 6861.173km
偏心率: 0.0000768
轨道倾角: 43.001°
近地点辐角 280.919°
升交点赤经 266.228°
平近点角 79.157°
近地点: 482.509km
远地点: 483.563km
周期: 94.266分钟
每日圈数: 15.275847
详细信息
固有亮度:
5
最大亮度:
0.5
卫星平台:
Starlink v2.0 mini
覆盖范围:
全球
运营商:
太空探索技术公司
运营商所在国:
美国
制造商(研发单位):
太空探索技术公司
制造商所在国:
美国
使用方式:
暂无
卫星简介
星链(Starlink)计划是由太空探索技术公司(SpaceX)提出的一个巨型低轨卫星互联网星座项目,计划在2019年至2024年间在太空搭建由约1.2万颗卫星组成的“星链”网络,其中1584颗将部署在地球上空550千米处的近地轨道,并从2020年开始工作。该卫星仍在工作。
2D轨道图
3D轨道图
轨道高度分析图
轨道倾角分析图
轨道综合分析图
查看轨道综合分析图